Location: Lac de la Montange Noire
(46.1952°N, 74.2701°W)
Time: 21:31:10
(UTC-04:00)

Iridium 42 - Visible Passes

Search period start: 29 September 2016 00:00
Search period end: 09 October 2016 00:00
Orbit: 775 x 778 km, 86.4° (Epoch: 29 September)

Date Brightness Start Highest point End Pass type
(mag) Time Alt. Az. Time Alt. Az. Time Alt. Az.
29 Sep 7.3 19:04:50 10° NE 19:07:08 13° ENE 19:09:25 10° E visible
29 Sep 5.4 20:43:23 10° N 20:48:37 89° W 20:51:30 27° S visible
29 Sep 8.4 22:26:30 10° NW 22:28:28 12° WNW 22:30:26 10° W visible
30 Sep 5.6 20:09:39 10° N 20:14:45 52° E 20:18:24 19° SSE visible
30 Sep 7.8 21:51:11 10° NNW 21:55:03 21° W 21:58:53 10° SW visible
01 Oct 6.3 19:36:11 10° NNE 19:40:46 30° ENE 19:45:17 10° SE visible
01 Oct 6.9 21:16:45 10° NNW 21:21:30 37° W 21:25:56 12° SSW visible
02 Oct 6.9 19:03:10 10° NNE 19:06:37 18° ENE 19:10:03 10° ESE visible
02 Oct 5.9 20:42:39 10° N 20:47:50 65° W 20:52:59 10° S visible
03 Oct 5.4 20:08:48 10° N 20:14:03 72° E 20:19:13 10° S visible
03 Oct 8.2 21:51:05 10° NW 21:54:05 16° WNW 21:57:05 10° WSW visible
04 Oct 5.9 19:35:11 10° N 19:40:07 40° E 19:45:00 10° SSE visible
04 Oct 7.5 21:16:17 10° NNW 21:20:36 27° W 21:24:55 10° SW visible
05 Oct 6.6 19:01:53 10° NNE 19:06:03 24° ENE 19:10:12 10° SE visible
05 Oct 6.5 20:42:01 10° NNW 20:47:00 47° W 20:51:58 10° SSW visible
06 Oct 5.5 20:08:02 10° N 20:13:17 83° W 20:18:29 10° S visible
06 Oct 8.6 21:51:37 10° WNW 21:53:04 11° WNW 21:54:31 10° W visible
07 Oct 5.6 19:34:17 10° N 19:39:25 56° E 19:44:32 10° SSE visible
07 Oct 8.0 21:15:58 10° NNW 21:19:40 20° WNW 21:23:21 10° WSW visible
08 Oct 6.2 19:00:46 10° NNE 19:05:27 32° ENE 19:10:05 10° SE visible
08 Oct 7.1 20:41:28 10° NNW 20:46:08 34° W 20:50:47 10° SSW visible
